Regional Weather Roundup
Issued by NWS

Home | Current Version | Previous Version | Text Only | Print | Product List | Glossary On
Versions: 1 2 3 4 5 6 7 8 9 10 11 12 13 14 15 16 17 18 19 20 21 22 23 24 25 26 27 28 29 30 31 32 33 34 35 36 37 38 39 40 41 42 43 44 45 46 47 48 49 50
000
ASUS43 KLSX 010507
RWRMO

WEATHER SUMMARY FOR MISSOURI
NATIONAL WEATHER SERVICE SPRINGFIELD MO
1200 AM CDT WED OCT 01 2014

NOTE: "FAIR" INDICATES FEW OR NO CLOUDS BELOW 12,000 FEET WITH NO
       SIGNIFICANT WEATHER AND/OR OBSTRUCTIONS TO VISIBILITY.
       CURRENT SKY AND/OR WEATHER CONDITIONS ARE NOT AVAILABLE FOR
       CHILLICOTHE AND FARMINGTON.

MOZ001>031-035>038-043-044-053-054-010600-
...NORTHERN AND WESTERN MISSOURI...

CITY           SKY/WX    TMP DP  RH WIND       PRES   REMARKS
KANSAS CTY INT CLOUDY    72  59  63 SE12      29.79S
KANSAS C DTWN  MOCLDY    75  59  57 SE12G23   29.78S
LEE`S SUMMIT   PTCLDY    71  59  65 S9        29.82R
ST JOSEPH      CLOUDY    72  59  63 SE12      29.76F
CHILLICOTHE      N/A     70  62  76 SE7       29.83S
KIRKSVILLE     MOCLDY    63  32  31 E8        29.88S

$$
MOZ066>068-077>081-088>096-101>105-010600-
...SOUTHWEST MISSOURI...

CITY           SKY/WX    TMP DP  RH WIND       PRES   REMARKS
SPRINGFIELD    CLEAR     67  55  65 SE10      29.87S
JOPLIN         PTCLDY    70  59  68 SE8       29.83F

$$
MOZ032>034-039>042-045>050-055>058-069>072-010600-
...CENTRAL MISSOURI...

CITY           SKY/WX    TMP DP  RH WIND       PRES   REMARKS
COLUMBIA       CLEAR     67  57  70 SE8       29.86S
JEFFERSON CITY CLEAR     63  57  81 SE3       29.85F
ROLLA          CLEAR     64  52  64 S7        29.88F
SEDALIA        CLEAR     66  56  70 S8        29.84S
WHITEMAN AFB   CLEAR     69  58  68 S10       29.82S
OSAGE BEACH    CLEAR     64  54  68 S3        29.87S

$$
MOZ051-052-059>065-010600-
...EAST CENTRAL MISSOURI...

CITY           SKY/WX    TMP DP  RH WIND       PRES   REMARKS
ST LOUIS INTL  CLEAR     69  60  73 SE9       29.91S
SPIRIT OF STL  CLEAR    N/A N/A N/A CALM      29.89S
ST CHARLES     CLEAR     64  60  87 E7        29.90S

$$
MOZ072>076-082>087-097>100-106>115-010600-
...SOUTH CENTRAL AND SOUTHEAST MISSOURI...

CITY           SKY/WX    TMP DP  RH WIND       PRES   REMARKS
CAPE GIRARDEAU CLEAR     57  55  93 SE5       29.90S
FARMINGTON     CLEAR     59  54  82 CALM      29.93S
POPLAR BLUFF   CLEAR     60  56  86 CALM      29.88F
WEST PLAINS    CLEAR     56  53  90 CALM      29.92S

$$


USA.gov is the U.S. government's official web portal to all federal, state and local government web resources and services.